Regional Weather Roundup
Issued by NWS

Home | Current Version | Previous Version | Graphics & Text | Print | Product List | Glossary On
Versions: 1 2 3 4 5 6 7 8 9 10 11 12 13 14 15 16 17 18 19 20 21 22 23 24 25 26 27 28 29 30 31 32 33 34 35 36 37 38 39 40 41 42 43 44 45 46 47 48 49 50
000
ASUS43 KTOP 272308
RWRKS

WEATHER ROUNDUP FOR KANSAS
NATIONAL WEATHER SERVICE GOODLAND KS
600 PM CDT WED AUG 27 2014

NOTE:  "FAIR" INDICATES FEW OR NO CLOUDS BELOW 12,000 FEET WITH NO
SIGNIFICANT WEATHER AND/OR OBSTRUCTIONS TO VISIBILITY.

KSZ001>006-013>018-027>032-041>047-280000-
NORTHWEST KANSAS

CITY           SKY/WX    TMP DP  RH WIND       PRES   REMARKS
GOODLAND       PTSUNNY   78  65  63 S10       30.02F
HAYS           PTSUNNY   81  66  61 SE15G22   30.01S
HILL CITY      LGT RAIN  70  68  93 E14       30.01S
RUSSELL        PTSUNNY   80  68  66 SE10      30.01S
$$

KSZ061>065-074>080-084>089-280000-
SOUTHWEST KANSAS

CITY           SKY/WX    TMP DP  RH WIND       PRES   REMARKS
DODGE CITY     PTSUNNY   83  67  58 S16G24    30.01F
ELKHART          N/A     84  60  44 S12         N/A
GARDEN CITY    LGT RAIN  76  70  82 SE14G24   30.00F
GREAT BEND     PTSUNNY   86  66  51 SE15      30.01R
LIBERAL        CLOUDY    81  64  57 SE15      30.02F
PRATT          MOSUNNY   86  61  42 SE8       30.03R
$$

KSZ066>073-081>083-090>101-280000-
SOUTHEAST KANSAS

CITY           SKY/WX    TMP DP  RH WIND       PRES   REMARKS
CHANUTE        MOSUNNY   95  63  34 VRB3      29.98F HX  96
COFFEYVILLE    MOSUNNY   95  65  37 S8        29.97F HX  97
HUTCHINSON     PTSUNNY   87  67  51 SE6       30.00F
MEDICINE LODGE   N/A     93  61  34 S9        29.97F
NEWTON         PTSUNNY   88  61  40 S9        30.04F
PARSONS        MOSUNNY   95  66  38 VRB5      29.99F HX  98
WICHITA INTL   PTSUNNY   90  63  40 SE15      29.98F
WICHITA JABRA  MOSUNNY   91  61  36 S16       29.99F
WICHITA MCCONL MOSUNNY   93  62  35 SE14      30.00F
WINFIELD       SUNNY     93  64  38 SE12G20   29.99F
$$

KSZ007>012-019>026-033>040-048>060-102>105-280000-
NORTHEAST KANSAS

CITY           SKY/WX    TMP DP  RH WIND       PRES   REMARKS
CONCORDIA      PTSUNNY   82  73  74 E7        30.01F
EMPORIA        PTSUNNY   91  66  43 E6        29.99F
LAWRENCE       CLOUDY    88  71  57 E9        30.02F
MANHATTAN      PTSUNNY   88  71  57 E15       29.99F
MARYSVILLE     CLOUDY    79  72  78 E9        30.02F
OLATHE IND     PTSUNNY   84  72  67 SE9       30.04F
OLATHE EXE     PTSUNNY   83  72  69 E7        30.03F
SALINA         CLOUDY    86  66  51 CALM      30.00F
TOPEKA BILLARD CLOUDY    85  72  65 NE8       30.02F
TOPEKA FORBES  CLOUDY    85  71  63 E12       30.02F
$$


USA.gov is the U.S. government's official web portal to all federal, state and local government web resources and services.